This is the latest recevied weather packets stored in our database for station/object WE1C. If no packets are shown the sender has not sent any weather packets the latest 10 day(s).
| Time | Temp. | Humidity | Pressure | Rain* | Wind** | Luminosity | Snow |
|---|---|---|---|---|---|---|---|
| 1777546795 | 6.11° C | 99% | 1036.7 hPa | 0 mm | - | 15 W/m² | - |
| 1777546492 | 6.11° C | 99% | 1036.8 hPa | 0 mm | - | 13 W/m² | - |
| 1777546189 | 6.67° C | 99% | 1036.8 hPa | 0 mm | - | 15 W/m² | - |
| 1777545885 | 6.11° C | 99% | 1036.7 hPa | 0 mm | - | 18 W/m² | - |
| 1777545582 | 6.11° C | 99% | 1036.6 hPa | 0 mm | - | 18 W/m² | - |
| 1777545279 | 6.67° C | 99% | 1036.4 hPa | 0 mm | - | 15 W/m² | - |
| 1777544976 | 6.11° C | 99% | 1036.6 hPa | 0 mm | - | 13 W/m² | - |
| 1777544673 | 6.11° C | 99% | 1036.6 hPa | 0 mm | - | 13 W/m² | - |
| 1777544368 | 6.11° C | 99% | 1036.6 hPa | 0 mm | - | 11 W/m² | - |
| 1777544065 | 6.11° C | 99% | 1036.7 hPa | 0 mm | - | 7 W/m² | - |
| 1777543763 | 6.11° C | 99% | 1036.8 hPa | 0 mm | - | 5 W/m² | - |
| 1777543459 | 6.11° C | 99% | 1036.6 hPa | 0 mm | - | 4 W/m² | - |
| 1777543154 | 6.11° C | 99% | 1036.5 hPa | 0 mm | - | 2 W/m² | - |
| 1777542850 | 6.67° C | 99% | 1036.7 hPa | 0 mm | - | 1 W/m² | - |
| 1777542548 | 6.67° C | 99% | 1036.8 hPa | 0 mm | - | 0 W/m² | - |
| 1777542243 | 6.67° C | 99% | 1036.8 hPa | 0 mm | - | 0 W/m² | - |
| 1777541941 | 6.67° C | 99% | 1037 hPa | 0 mm | - | 0 W/m² | - |
| 1777541638 | 6.11° C | 99% | 1037 hPa | 0 mm | - | 0 W/m² | - |
| 1777541335 | 6.11° C | 99% | 1037.1 hPa | 0 mm | - | 0 W/m² | - |
| 1777541030 | 6.11° C | 99% | 1037.1 hPa | 1.27 mm | - | 0 W/m² | - |
| 1777540728 | 6.11° C | 99% | 1037.3 hPa | 1.27 mm | - | 0 W/m² | - |
| 1777540426 | 6.11° C | 99% | 1037.4 hPa | 0 mm | - | 0 W/m² | - |
| 1777540122 | 6.11° C | 99% | 1037.3 hPa | 1.78 mm | - | 0 W/m² | - |
| 1777539822 | 6.11° C | 99% | 1037.5 hPa | 1.78 mm | - | 0 W/m² | - |
| 1777539518 | 6.11° C | 99% | 1037.4 hPa | 0 mm | - | 0 W/m² | - |
* Rain latest hour (hover to see other rain measurements)
** Current wind speed in m/s (hover to see current wind gust speed)